Time,TemperatureF,DewpointF,PressureIn,WindDirection,WindDirectionDegrees,WindSpeedMPH,WindSpeedGustMPH,Humidity,HourlyPrecipIn,Conditions,Clouds,dailyrainin,SolarRadiationWatts/m^2,SoftwareType,DateUTC
2014-01-28 00:02:00,28.2,26.7,28.47,SSE,165,0.0,0.0,94,0.00,RA,FEW,0.00,0.0,WeatherDisplay:10.37,2014-01-27 23:02:00,
2014-01-28 00:07:00,28.2,26.7,28.47,SSE,165,0.0,0.0,94,0.00,CLR,FEW,0.00,0.0,WeatherDisplay:10.37,2014-01-27 23:07:00,
2014-01-28 00:12:00,28.2,26.7,28.47,SSE,165,0.0,0.0,94,0.00,CLR,FEW,0.00,0.0,WeatherDisplay:10.37,2014-01-27 23:12:00,
2014-01-28 00:17:00,28.2,26.7,28.47,SSE,165,0.0,0.0,94,0.00,CLR,FEW,0.00,0.0,WeatherDisplay:10.37,2014-01-27 23:17:00,
2014-01-28 00:22:00,28.2,26.7,28.47,SSE,165,0.0,0.0,94,0.00,CLR,FEW,0.00,0.0,WeatherDisplay:10.37,2014-01-27 23:22:00,
2014-01-28 00:27:00,28.4,26.9,28.47,SSE,165,0.0,0.0,94,0.00,CLR,FEW,0.00,0.0,WeatherDisplay:10.37,2014-01-27 23:27:00,
2014-01-28 00:32:00,28.4,26.9,28.50,SSE,165,0.0,0.0,94,0.00,CLR,FEW,0.00,0.0,WeatherDisplay:10.37,2014-01-27 23:32:00,
2014-01-28 00:37:00,28.4,26.9,28.50,SSE,165,0.0,0.0,94,0.00,CLR,FEW,0.00,0.0,WeatherDisplay:10.37,2014-01-27 23:37:00,
2014-01-28 00:42:00,28.4,26.9,28.50,SSE,165,0.0,0.0,94,0.00,CLR,FEW,0.00,0.0,WeatherDisplay:10.37,2014-01-27 23:42:00,
2014-01-28 00:47:00,28.4,26.9,28.50,SSE,165,0.0,0.0,94,0.00,CLR,FEW,0.00,0.0,WeatherDisplay:10.37,2014-01-27 23:47:00,
2014-01-28 00:52:00,28.4,26.9,28.50,SSE,165,0.0,0.0,94,0.00,CLR,FEW,0.00,0.0,WeatherDisplay:10.37,2014-01-27 23:52:00,
2014-01-28 00:57:00,28.4,26.9,28.50,SSE,165,0.0,0.0,94,0.00,CLR,FEW,0.00,0.0,WeatherDisplay:10.37,2014-01-27 23:57:00,
2014-01-28 01:02:00,28.4,26.9,28.50,SSE,165,0.0,0.0,94,0.00,CLR,FEW,0.00,0.0,WeatherDisplay:10.37,2014-01-28 00:02:00,
2014-01-28 01:07:00,28.6,27.1,28.50,SSE,165,0.0,0.0,94,0.00,CLR,FEW,0.00,0.0,WeatherDisplay:10.37,2014-01-28 00:07:00,
2014-01-28 01:12:00,28.6,27.1,28.50,SSE,165,0.0,0.0,94,0.00,CLR,FEW,0.00,0.0,WeatherDisplay:10.37,2014-01-28 00:12:00,
2014-01-28 01:17:00,28.4,26.9,28.50,SSE,165,0.0,0.0,94,0.00,CLR,FEW,0.00,0.0,WeatherDisplay:10.37,2014-01-28 00:17:00,
2014-01-28 01:22:00,28.4,26.9,28.50,SSE,165,0.0,0.0,94,0.00,CLR,FEW,0.00,0.0,WeatherDisplay:10.37,2014-01-28 00:22:00,
2014-01-28 01:27:00,28.4,26.9,28.50,SSE,165,0.0,0.0,94,0.00,CLR,FEW,0.00,0.0,WeatherDisplay:10.37,2014-01-28 00:27:00,
2014-01-28 01:32:00,28.4,26.9,28.50,SSE,150,0.0,0.0,94,0.00,CLR,FEW,0.00,0.0,WeatherDisplay:10.37,2014-01-28 00:32:00,
2014-01-28 01:37:00,28.4,26.9,28.50,SSE,150,0.0,0.0,94,0.00,CLR,FEW,0.00,0.0,WeatherDisplay:10.37,2014-01-28 00:37:00,
2014-01-28 01:42:00,28.4,26.9,28.50,SE,135,0.0,0.0,94,0.00,CLR,FEW,0.00,0.0,WeatherDisplay:10.37,2014-01-28 00:42:00,
2014-01-28 01:47:00,28.4,26.9,28.50,South,175,0.0,0.0,94,0.00,CLR,FEW,0.00,0.0,WeatherDisplay:10.37,2014-01-28 00:47:00,
2014-01-28 01:52:00,28.6,27.1,28.50,South,170,0.0,0.0,94,0.00,CLR,FEW,0.00,0.0,WeatherDisplay:10.37,2014-01-28 00:52:00,
2014-01-28 01:57:00,28.6,27.1,28.50,South,170,0.0,0.0,94,0.00,CLR,FEW,0.00,0.0,WeatherDisplay:10.37,2014-01-28 00:57:00,
2014-01-28 02:02:00,28.4,26.9,28.47,SSE,165,0.0,0.0,94,0.00,CLR,FEW,0.00,0.0,WeatherDisplay:10.37,2014-01-28 01:02:00,
2014-01-28 02:07:00,28.4,26.9,28.47,East,100,0.0,0.0,94,0.00,CLR,FEW,0.00,0.0,WeatherDisplay:10.37,2014-01-28 01:07:00,
2014-01-28 02:12:00,28.4,26.9,28.47,East,100,0.0,0.0,94,0.00,CLR,FEW,0.00,0.0,WeatherDisplay:10.37,2014-01-28 01:12:00,
2014-01-28 02:17:00,28.4,26.9,28.47,South,175,0.0,0.0,94,0.00,CLR,FEW,0.00,0.0,WeatherDisplay:10.37,2014-01-28 01:17:00,
2014-01-28 02:22:00,28.4,26.9,28.50,SSE,160,0.0,0.0,94,0.00,CLR,FEW,0.00,0.0,WeatherDisplay:10.37,2014-01-28 01:22:00,
2014-01-28 02:27:00,28.2,26.7,28.50,South,170,0.0,0.0,94,0.00,CLR,FEW,0.00,0.0,WeatherDisplay:10.37,2014-01-28 01:27:00,
2014-01-28 02:32:00,28.2,26.7,28.47,SSE,165,0.0,0.0,94,0.00,CLR,FEW,0.00,0.0,WeatherDisplay:10.37,2014-01-28 01:32:00,
2014-01-28 02:37:00,28.2,26.7,28.47,SSE,165,0.0,0.0,94,0.00,CLR,FEW,0.00,0.0,WeatherDisplay:10.37,2014-01-28 01:37:00,
2014-01-28 02:42:00,28.2,26.7,28.47,South,175,0.0,0.0,94,0.00,CLR,FEW,0.00,0.0,WeatherDisplay:10.37,2014-01-28 01:42:00,
2014-01-28 02:47:00,28.2,26.7,28.47,South,190,0.0,0.0,94,0.00,CLR,FEW,0.00,0.0,WeatherDisplay:10.37,2014-01-28 01:47:00,
2014-01-28 02:52:00,27.9,26.4,28.47,SSE,165,0.0,0.0,94,0.00,CLR,FEW,0.00,0.0,WeatherDisplay:10.37,2014-01-28 01:52:00,
2014-01-28 02:57:00,27.7,26.2,28.47,SSW,195,0.0,0.0,94,0.00,CLR,FEW,0.00,0.0,WeatherDisplay:10.37,2014-01-28 01:57:00,
2014-01-28 03:02:00,27.5,26.0,28.47,South,185,0.0,0.0,94,0.00,CLR,FEW,0.00,0.0,WeatherDisplay:10.37,2014-01-28 02:02:00,
2014-01-28 03:07:00,27.1,25.6,28.47,SSE,165,0.0,0.0,94,0.00,CLR,FEW,0.00,0.0,WeatherDisplay:10.37,2014-01-28 02:07:00,
2014-01-28 03:12:00,27.1,25.6,28.47,SSE,165,0.0,0.0,94,0.00,CLR,FEW,0.00,0.0,WeatherDisplay:10.37,2014-01-28 02:12:00,
2014-01-28 03:17:00,26.8,25.3,28.47,SSE,165,0.0,0.0,94,0.00,CLR,FEW,0.00,0.0,WeatherDisplay:10.37,2014-01-28 02:17:00,
2014-01-28 03:22:00,27.0,25.5,28.47,SSE,160,0.0,0.0,94,0.00,CLR,FEW,0.00,0.0,WeatherDisplay:10.37,2014-01-28 02:22:00,
2014-01-28 03:27:00,27.1,25.6,28.47,SSE,165,0.0,0.0,94,0.00,CLR,FEW,0.00,0.0,WeatherDisplay:10.37,2014-01-28 02:27:00,
2014-01-28 03:32:00,27.3,25.8,28.50,SSE,165,0.0,0.0,94,0.00,CLR,FEW,0.00,0.0,WeatherDisplay:10.37,2014-01-28 02:32:00,
2014-01-28 03:37:00,27.3,25.8,28.50,SSE,165,0.0,0.0,94,0.00,CLR,FEW,0.00,0.0,WeatherDisplay:10.37,2014-01-28 02:37:00,
2014-01-28 03:42:00,27.3,26.1,28.50,SSE,165,0.0,0.0,95,0.00,CLR,FEW,0.00,0.0,WeatherDisplay:10.37,2014-01-28 02:42:00,
2014-01-28 03:47:00,27.5,26.3,28.50,SSE,165,0.0,0.0,95,0.00,CLR,FEW,0.00,0.0,WeatherDisplay:10.37,2014-01-28 02:47:00,
2014-01-28 03:52:00,27.3,26.1,28.47,SSE,165,0.0,0.0,95,0.00,CLR,FEW,0.00,0.0,WeatherDisplay:10.37,2014-01-28 02:52:00,
2014-01-28 03:57:00,27.3,26.1,28.47,SSE,165,0.0,0.0,95,0.00,CLR,FEW,0.00,0.0,WeatherDisplay:10.37,2014-01-28 02:57:00,
2014-01-28 04:02:00,27.5,26.3,28.50,SSE,165,0.0,0.0,95,0.00,CLR,FEW,0.00,0.0,WeatherDisplay:10.37,2014-01-28 03:02:00,
2014-01-28 04:07:00,27.3,26.1,28.50,SSE,165,0.0,0.0,95,0.00,CLR,FEW,0.00,0.0,WeatherDisplay:10.37,2014-01-28 03:07:00,
2014-01-28 04:12:00,27.3,26.1,28.50,SSE,165,0.0,0.0,95,0.00,CLR,FEW,0.00,0.0,WeatherDisplay:10.37,2014-01-28 03:12:00,
2014-01-28 04:17:00,27.5,26.3,28.50,SSE,165,0.0,0.0,95,0.00,CLR,FEW,0.00,0.0,WeatherDisplay:10.37,2014-01-28 03:17:00,
2014-01-28 04:22:00,27.5,26.0,28.50,East,90,0.0,0.0,94,0.00,CLR,FEW,0.00,0.0,WeatherDisplay:10.37,2014-01-28 03:22:00,
2014-01-28 04:27:00,27.3,26.1,28.50,SE,145,0.0,0.0,95,0.00,CLR,FEW,0.00,0.0,WeatherDisplay:10.37,2014-01-28 03:27:00,
2014-01-28 04:32:00,27.3,26.1,28.50,SSE,165,0.0,0.0,95,0.00,CLR,FEW,0.00,0.0,WeatherDisplay:10.37,2014-01-28 03:32:00,
2014-01-28 04:37:00,27.3,26.1,28.50,SSE,165,0.0,0.0,95,0.00,CLR,FEW,0.00,0.0,WeatherDisplay:10.37,2014-01-28 03:37:00,
2014-01-28 04:42:00,27.3,26.1,28.50,SSE,165,0.0,0.0,95,0.00,CLR,FEW,0.00,0.0,WeatherDisplay:10.37,2014-01-28 03:42:00,
2014-01-28 04:47:00,27.3,26.1,28.50,SSE,165,0.0,0.0,95,0.00,CLR,FEW,0.00,0.0,WeatherDisplay:10.37,2014-01-28 03:47:00,
2014-01-28 04:52:00,27.3,26.1,28.50,SSE,165,0.0,0.0,95,0.00,CLR,FEW,0.00,0.0,WeatherDisplay:10.37,2014-01-28 03:52:00,
2014-01-28 04:57:00,27.3,26.1,28.50,SSE,165,0.0,0.0,95,0.00,CLR,FEW,0.00,0.0,WeatherDisplay:10.37,2014-01-28 03:57:00,
2014-01-28 05:02:00,27.3,26.1,28.50,SSE,165,0.0,0.0,95,0.00,CLR,FEW,0.00,0.0,WeatherDisplay:10.37,2014-01-28 04:02:00,
2014-01-28 05:07:00,27.3,26.1,28.50,South,190,0.0,0.0,95,0.00,CLR,FEW,0.00,0.0,WeatherDisplay:10.37,2014-01-28 04:07:00,
2014-01-28 05:12:00,27.3,26.1,28.50,South,190,0.0,0.0,95,0.00,CLR,FEW,0.00,0.0,WeatherDisplay:10.37,2014-01-28 04:12:00,
2014-01-28 05:17:00,27.3,26.1,28.50,South,175,0.0,0.0,95,0.00,CLR,FEW,0.00,0.0,WeatherDisplay:10.37,2014-01-28 04:17:00,
2014-01-28 05:22:00,27.3,26.1,28.50,South,185,0.0,0.0,95,0.00,CLR,FEW,0.00,0.0,WeatherDisplay:10.37,2014-01-28 04:22:00,
2014-01-28 05:27:00,27.5,26.3,28.50,SE,140,0.0,0.0,95,0.00,CLR,FEW,0.00,0.0,WeatherDisplay:10.37,2014-01-28 04:27:00,
2014-01-28 05:32:00,27.5,26.3,28.50,South,175,0.0,0.0,95,0.00,CLR,FEW,0.00,0.0,WeatherDisplay:10.37,2014-01-28 04:32:00,
2014-01-28 05:37:00,27.5,26.3,28.50,South,175,0.0,0.0,95,0.00,CLR,FEW,0.00,0.0,WeatherDisplay:10.37,2014-01-28 04:37:00,
2014-01-28 05:42:00,27.5,26.3,28.50,SE,140,0.0,0.0,95,0.00,CLR,FEW,0.00,0.0,WeatherDisplay:10.37,2014-01-28 04:42:00,
2014-01-28 05:47:00,27.5,26.3,28.50,SSE,150,0.0,0.0,95,0.00,CLR,FEW,0.00,0.0,WeatherDisplay:10.37,2014-01-28 04:47:00,
2014-01-28 05:52:00,27.5,26.3,28.50,SSE,165,0.0,0.0,95,0.00,CLR,FEW,0.00,0.0,WeatherDisplay:10.37,2014-01-28 04:52:00,
2014-01-28 05:57:00,27.5,26.3,28.50,SE,140,0.0,0.0,95,0.00,CLR,FEW,0.00,0.0,WeatherDisplay:10.37,2014-01-28 04:57:00,
2014-01-28 06:01:00,27.5,26.3,28.50,SE,140,0.0,0.0,95,0.00,CLR,FEW,0.00,0.0,WeatherDisplay:10.37,2014-01-28 05:01:00,
2014-01-28 06:02:00,27.5,26.3,28.50,SE,140,0.0,0.0,95,0.00,CLR,FEW,0.00,0.0,WeatherDisplay:10.37,2014-01-28 05:02:00,
2014-01-28 06:07:00,27.5,26.3,28.50,SSE,165,0.0,0.0,95,0.00,CLR,FEW,0.00,0.0,WeatherDisplay:10.37,2014-01-28 05:07:00,
2014-01-28 06:12:00,27.5,26.3,28.50,SSE,165,0.0,0.0,95,0.00,CLR,FEW,0.00,0.0,WeatherDisplay:10.37,2014-01-28 05:12:00,
2014-01-28 06:17:00,27.5,26.3,28.50,SSE,150,0.0,0.0,95,0.00,CLR,FEW,0.00,0.0,WeatherDisplay:10.37,2014-01-28 05:17:00,
2014-01-28 06:22:00,27.5,26.3,28.50,South,175,0.0,0.0,95,0.00,CLR,FEW,0.00,0.0,WeatherDisplay:10.37,2014-01-28 05:22:00,
2014-01-28 06:27:00,27.7,26.4,28.50,South,175,0.0,0.0,95,0.00,CLR,FEW,0.00,0.0,WeatherDisplay:10.37,2014-01-28 05:27:00,
2014-01-28 06:32:00,27.7,26.4,28.53,South,175,0.0,0.0,95,0.00,CLR,FEW,0.00,0.0,WeatherDisplay:10.37,2014-01-28 05:32:00,
2014-01-28 06:37:00,27.7,26.4,28.53,South,175,0.0,0.0,95,0.00,CLR,FEW,0.00,0.0,WeatherDisplay:10.37,2014-01-28 05:37:00,
2014-01-28 06:42:00,27.7,26.4,28.53,South,170,0.0,0.0,95,0.00,CLR,FEW,0.00,0.0,WeatherDisplay:10.37,2014-01-28 05:42:00,
2014-01-28 06:47:00,27.7,26.4,28.53,SE,140,0.0,0.0,95,0.00,CLR,FEW,0.00,0.0,WeatherDisplay:10.37,2014-01-28 05:47:00,
2014-01-28 06:52:00,27.7,26.4,28.50,SE,140,0.0,0.0,95,0.00,CLR,FEW,0.00,0.0,WeatherDisplay:10.37,2014-01-28 05:52:00,
2014-01-28 06:57:00,27.7,26.4,28.50,SE,140,0.0,0.0,95,0.00,CLR,FEW,0.00,0.0,WeatherDisplay:10.37,2014-01-28 05:57:00,
2014-01-28 07:02:00,27.9,26.6,28.50,SE,140,0.0,0.0,95,0.00,CLR,FEW,0.00,0.0,WeatherDisplay:10.37,2014-01-28 06:02:00,
2014-01-28 07:07:00,27.9,26.6,28.50,SE,140,0.0,0.0,95,0.00,CLR,FEW,0.00,0.0,WeatherDisplay:10.37,2014-01-28 06:07:00,
2014-01-28 07:12:00,27.9,26.6,28.50,SE,140,0.0,0.0,95,0.00,OVC,FEW,0.00,0.0,WeatherDisplay:10.37,2014-01-28 06:12:00,
2014-01-28 07:17:00,27.9,26.6,28.50,SE,140,0.0,0.0,95,0.00,OVC,FEW,0.00,0.0,WeatherDisplay:10.37,2014-01-28 06:17:00,
2014-01-28 07:22:00,27.9,26.6,28.50,SE,135,0.0,0.0,95,0.00,OVC,FEW,0.00,0.0,WeatherDisplay:10.37,2014-01-28 06:22:00,
2014-01-28 07:27:00,27.9,26.6,28.50,SE,135,0.0,0.0,95,0.00,OVC,FEW,0.00,0.0,WeatherDisplay:10.37,2014-01-28 06:27:00,
2014-01-28 07:32:00,27.9,26.6,28.53,SE,135,0.0,0.0,95,0.00,OVC,FEW,0.00,0.0,WeatherDisplay:10.37,2014-01-28 06:32:00,
2014-01-28 07:37:00,27.9,26.6,28.53,SE,135,0.0,0.0,95,0.00,OVC,FEW,0.00,0.0,WeatherDisplay:10.37,2014-01-28 06:37:00,
2014-01-28 07:42:00,28.0,26.8,28.53,SE,135,0.0,0.0,95,0.00,OVC,FEW,0.00,0.0,WeatherDisplay:10.37,2014-01-28 06:42:00,
2014-01-28 07:47:00,28.0,26.8,28.53,SE,135,0.0,0.0,95,0.00,OVC,FEW,0.00,0.0,WeatherDisplay:10.37,2014-01-28 06:47:00,
2014-01-28 07:52:00,28.2,27.0,28.50,SE,135,0.0,0.0,95,0.00,OVC,FEW,0.00,0.0,WeatherDisplay:10.37,2014-01-28 06:52:00,
2014-01-28 07:57:00,28.2,27.0,28.50,SE,135,0.0,0.0,95,0.00,OVC,FEW,0.00,0.0,WeatherDisplay:10.37,2014-01-28 06:57:00,
2014-01-28 08:02:00,28.2,27.0,28.50,SE,135,0.0,0.0,95,0.00,OVC,FEW,0.00,0.0,WeatherDisplay:10.37,2014-01-28 07:02:00,
2014-01-28 08:07:00,28.2,27.0,28.50,SE,135,0.0,0.0,95,0.00,OVC,FEW,0.00,0.0,WeatherDisplay:10.37,2014-01-28 07:07:00,
2014-01-28 08:12:00,28.2,27.0,28.50,SE,135,0.0,0.0,95,0.00,OVC,FEW,0.00,0.0,WeatherDisplay:10.37,2014-01-28 07:12:00,
2014-01-28 08:17:00,28.6,27.3,28.50,SE,135,0.0,0.0,95,0.00,OVC,FEW,0.00,0.0,WeatherDisplay:10.37,2014-01-28 07:17:00,
2014-01-28 08:22:00,28.6,27.3,28.50,SE,135,0.0,0.0,95,0.00,OVC,FEW,0.00,0.0,WeatherDisplay:10.37,2014-01-28 07:22:00,
2014-01-28 08:27:00,28.8,27.5,28.50,SE,135,0.0,0.0,95,0.00,OVC,FEW,0.00,0.0,WeatherDisplay:10.37,2014-01-28 07:27:00,
2014-01-28 08:32:00,28.9,27.7,28.50,SE,135,0.0,0.0,95,0.00,OVC,FEW,0.00,0.0,WeatherDisplay:10.37,2014-01-28 07:32:00,
2014-01-28 08:37:00,28.9,27.7,28.50,SE,135,0.0,0.0,95,0.00,OVC,FEW,0.00,0.0,WeatherDisplay:10.37,2014-01-28 07:37:00,
2014-01-28 08:42:00,28.9,27.7,28.50,SE,135,0.0,0.0,95,0.00,OVC,FEW,0.00,0.0,WeatherDisplay:10.37,2014-01-28 07:42:00,
2014-01-28 08:47:00,29.1,27.9,28.50,SE,135,0.0,0.0,95,0.00,OVC,FEW,0.00,0.0,WeatherDisplay:10.37,2014-01-28 07:47:00,
2014-01-28 08:52:00,29.1,27.9,28.50,SE,135,0.0,0.0,95,0.00,OVC,FEW,0.00,0.0,WeatherDisplay:10.37,2014-01-28 07:52:00,
2014-01-28 08:57:00,29.7,28.4,28.50,SE,135,0.0,0.0,95,0.00,OVC,FEW,0.00,0.0,WeatherDisplay:10.37,2014-01-28 07:57:00,
2014-01-28 09:02:00,29.7,28.4,28.50,SE,140,0.0,0.0,95,0.00,OVC,FEW,0.00,0.0,WeatherDisplay:10.37,2014-01-28 08:02:00,
2014-01-28 09:07:00,29.8,28.6,28.50,SE,140,0.0,0.0,95,0.00,OVC,FEW,0.00,0.0,WeatherDisplay:10.37,2014-01-28 08:07:00,
2014-01-28 09:12:00,29.8,28.6,28.50,SE,140,0.0,0.0,95,0.00,OVC,FEW,0.00,0.0,WeatherDisplay:10.37,2014-01-28 08:12:00,
2014-01-28 09:17:00,29.8,28.3,28.50,SE,135,0.0,0.0,94,0.00,OVC,FEW,0.00,0.0,WeatherDisplay:10.37,2014-01-28 08:17:00,
2014-01-28 09:22:00,30.0,28.5,28.50,SE,135,0.0,0.0,94,0.00,OVC,FEW,0.00,0.0,WeatherDisplay:10.37,2014-01-28 08:22:00,
2014-01-28 09:27:00,30.2,28.4,28.50,ENE,75,0.0,0.0,93,0.00,OVC,FEW,0.00,0.0,WeatherDisplay:10.37,2014-01-28 08:27:00,
2014-01-28 09:32:00,30.2,28.4,28.50,NE,45,0.0,0.0,93,0.00,OVC,FEW,0.00,0.0,WeatherDisplay:10.37,2014-01-28 08:32:00,
2014-01-28 09:37:00,30.2,28.4,28.50,NE,45,0.0,0.0,93,0.00,OVC,FEW,0.00,0.0,WeatherDisplay:10.37,2014-01-28 08:37:00,
2014-01-28 09:42:00,30.2,28.4,28.50,NNE,25,0.0,0.0,93,0.00,OVC,FEW,0.00,0.0,WeatherDisplay:10.37,2014-01-28 08:42:00,
2014-01-28 09:47:00,30.0,28.0,28.50,NE,50,0.0,0.0,92,0.00,OVC,FEW,0.00,0.0,WeatherDisplay:10.37,2014-01-28 08:47:00,
2014-01-28 09:52:00,30.7,28.7,28.50,NE,50,0.0,0.0,92,0.00,OVC,FEW,0.00,0.0,WeatherDisplay:10.37,2014-01-28 08:52:00,
2014-01-28 09:57:00,31.3,29.2,28.50,NE,50,0.0,0.0,92,0.00,OVC,FEW,0.00,0.0,WeatherDisplay:10.37,2014-01-28 08:57:00,
2014-01-28 10:02:00,31.8,29.8,28.50,NE,50,0.0,0.0,92,0.00,OVC,FEW,0.00,0.0,WeatherDisplay:10.37,2014-01-28 09:02:00,
2014-01-28 10:07:00,31.5,29.1,28.50,East,80,0.0,0.0,91,0.00,OVC,FEW,0.00,0.0,WeatherDisplay:10.37,2014-01-28 09:07:00,
2014-01-28 10:12:00,31.5,29.1,28.50,East,80,0.0,0.0,91,0.00,OVC,FEW,0.00,0.0,WeatherDisplay:10.37,2014-01-28 09:12:00,
2014-01-28 10:17:00,30.7,28.4,28.50,ESE,110,0.0,0.0,91,0.00,OVC,FEW,0.00,0.0,WeatherDisplay:10.37,2014-01-28 09:17:00,
2014-01-28 10:22:00,30.6,28.2,28.50,SE,135,0.0,0.0,91,0.00,OVC,FEW,0.00,0.0,WeatherDisplay:10.37,2014-01-28 09:22:00,
2014-01-28 10:27:00,30.6,28.2,28.50,SE,140,0.0,0.0,91,0.00,OVC,FEW,0.00,0.0,WeatherDisplay:10.37,2014-01-28 09:27:00,
2014-01-28 10:32:00,30.7,28.7,28.53,SE,140,0.0,0.0,92,0.00,OVC,FEW,0.00,0.0,WeatherDisplay:10.37,2014-01-28 09:32:00,
2014-01-28 10:37:00,30.7,28.7,28.53,SE,140,0.0,0.0,92,0.00,OVC,FEW,0.00,0.0,WeatherDisplay:10.37,2014-01-28 09:37:00,
2014-01-28 10:42:00,30.7,28.7,28.53,SE,140,0.0,0.0,92,0.00,OVC,FEW,0.00,0.0,WeatherDisplay:10.37,2014-01-28 09:42:00,
2014-01-28 10:47:00,31.1,28.8,28.53,SE,140,0.0,0.0,91,0.00,OVC,FEW,0.00,0.0,WeatherDisplay:10.37,2014-01-28 09:47:00,
2014-01-28 10:52:00,31.6,29.0,28.50,SE,140,0.0,0.0,90,0.00,OVC,FEW,0.00,0.0,WeatherDisplay:10.37,2014-01-28 09:52:00,
2014-01-28 10:57:00,31.5,28.9,28.50,SE,140,0.0,0.0,90,0.00,OVC,FEW,0.00,0.0,WeatherDisplay:10.37,2014-01-28 09:57:00,
2014-01-28 11:02:00,30.9,28.3,28.50,SE,140,0.0,0.0,90,0.00,OVC,FEW,0.00,0.0,WeatherDisplay:10.37,2014-01-28 10:02:00,
2014-01-28 11:07:00,31.3,28.7,28.50,SE,140,0.0,0.0,90,0.00,OVC,FEW,0.00,0.0,WeatherDisplay:10.37,2014-01-28 10:07:00,
2014-01-28 11:12:00,31.3,28.7,28.50,SE,140,0.0,0.0,90,0.00,OVC,FEW,0.00,0.0,WeatherDisplay:10.37,2014-01-28 10:12:00,
2014-01-28 11:17:00,31.3,28.7,28.50,SE,140,0.0,0.0,90,0.00,OVC,FEW,0.00,0.0,WeatherDisplay:10.37,2014-01-28 10:17:00,
2014-01-28 11:22:00,31.5,28.9,28.50,SSE,165,0.0,0.0,90,0.00,OVC,FEW,0.00,0.0,WeatherDisplay:10.37,2014-01-28 10:22:00,
2014-01-28 11:27:00,31.6,29.0,28.50,SSE,165,0.0,0.0,90,0.00,OVC,FEW,0.00,0.0,WeatherDisplay:10.37,2014-01-28 10:27:00,
2014-01-28 11:32:00,31.8,29.2,28.50,SE,145,0.0,0.0,90,0.00,OVC,FEW,0.00,0.0,WeatherDisplay:10.37,2014-01-28 10:32:00,
2014-01-28 11:37:00,31.8,29.2,28.50,SE,145,0.0,0.0,90,0.00,OVC,FEW,0.00,0.0,WeatherDisplay:10.37,2014-01-28 10:37:00,
2014-01-28 11:42:00,31.6,29.0,28.50,NNE,15,0.0,0.0,90,0.00,OVC,FEW,0.00,0.0,WeatherDisplay:10.37,2014-01-28 10:42:00,
2014-01-28 11:47:00,31.1,28.5,28.50,SE,145,0.0,0.0,90,0.00,OVC,FEW,0.00,0.0,WeatherDisplay:10.37,2014-01-28 10:47:00,
2014-01-28 11:52:00,30.9,28.3,28.50,SE,145,0.0,0.0,90,0.00,OVC,FEW,0.00,0.0,WeatherDisplay:10.37,2014-01-28 10:52:00,
2014-01-28 11:57:00,30.7,28.4,28.50,SSE,155,0.0,0.0,91,0.00,OVC,FEW,0.00,0.0,WeatherDisplay:10.37,2014-01-28 10:57:00,
2014-01-28 12:02:00,30.7,28.4,28.50,South,175,0.0,0.0,91,0.00,OVC,FEW,0.00,0.0,WeatherDisplay:10.37,2014-01-28 11:02:00,
2014-01-28 12:07:00,30.6,28.5,28.50,South,190,0.0,0.0,92,0.00,OVC,FEW,0.00,0.0,WeatherDisplay:10.37,2014-01-28 11:07:00,
2014-01-28 12:12:00,30.6,28.5,28.50,South,190,0.0,0.0,92,0.00,OVC,FEW,0.00,0.0,WeatherDisplay:10.37,2014-01-28 11:12:00,
2014-01-28 12:17:00,30.7,28.7,28.50,SE,130,0.0,0.0,92,0.00,OVC,FEW,0.00,0.0,WeatherDisplay:10.37,2014-01-28 11:17:00,
2014-01-28 12:22:00,30.9,28.9,28.50,South,180,0.0,0.0,92,0.00,OVC,FEW,0.00,0.0,WeatherDisplay:10.37,2014-01-28 11:22:00,
2014-01-28 12:27:00,31.3,29.2,28.50,South,190,0.0,0.0,92,0.00,OVC,FEW,0.00,0.0,WeatherDisplay:10.37,2014-01-28 11:27:00,
2014-01-28 12:32:00,31.1,28.8,28.50,South,175,0.0,0.0,91,0.00,OVC,FEW,0.00,0.0,WeatherDisplay:10.37,2014-01-28 11:32:00,
2014-01-28 12:37:00,31.1,28.8,28.50,South,175,0.0,0.0,91,0.00,OVC,FEW,0.00,0.0,WeatherDisplay:10.37,2014-01-28 11:37:00,
2014-01-28 12:42:00,31.1,28.8,28.50,SSW,195,0.0,0.0,91,0.00,OVC,FEW,0.00,0.0,WeatherDisplay:10.37,2014-01-28 11:42:00,
2014-01-28 12:47:00,31.1,28.8,28.50,South,175,0.0,0.0,91,0.00,OVC,FEW,0.00,0.0,WeatherDisplay:10.37,2014-01-28 11:47:00,
2014-01-28 12:52:00,31.3,29.0,28.50,SSE,155,0.0,0.0,91,0.00,OVC,FEW,0.00,0.0,WeatherDisplay:10.37,2014-01-28 11:52:00,
2014-01-28 12:57:00,31.3,29.0,28.50,SE,140,0.0,0.0,91,0.00,OVC,FEW,0.00,0.0,WeatherDisplay:10.37,2014-01-28 11:57:00,
2014-01-28 13:02:00,31.3,29.0,28.50,SSE,165,0.0,0.0,91,0.00,OVC,FEW,0.00,0.0,WeatherDisplay:10.37,2014-01-28 12:02:00,
2014-01-28 13:07:00,31.3,28.7,28.50,South,170,0.0,0.0,90,0.00,OVC,FEW,0.00,0.0,WeatherDisplay:10.37,2014-01-28 12:07:00,
2014-01-28 13:12:00,31.3,28.7,28.50,South,170,0.0,0.0,90,0.00,OVC,FEW,0.00,0.0,WeatherDisplay:10.37,2014-01-28 12:12:00,
2014-01-28 13:17:00,31.3,28.7,28.50,South,190,0.0,0.0,90,0.00,OVC,FEW,0.00,0.0,WeatherDisplay:10.37,2014-01-28 12:17:00,
2014-01-28 13:22:00,31.1,28.8,28.47,SSE,155,0.0,0.0,91,0.00,OVC,FEW,0.00,0.0,WeatherDisplay:10.37,2014-01-28 12:22:00,
2014-01-28 13:27:00,31.3,29.0,28.47,SE,145,0.0,0.0,91,0.00,OVC,FEW,0.00,0.0,WeatherDisplay:10.37,2014-01-28 12:27:00,
2014-01-28 13:32:00,31.5,29.1,28.47,South,175,0.0,0.0,91,0.00,OVC,FEW,0.00,0.0,WeatherDisplay:10.37,2014-01-28 12:32:00,
2014-01-28 13:37:00,31.5,29.1,28.47,South,175,0.0,0.0,91,0.00,OVC,FEW,0.00,0.0,WeatherDisplay:10.37,2014-01-28 12:37:00,
2014-01-28 13:42:00,30.9,28.6,28.47,SSE,155,0.0,0.0,91,0.00,OVC,FEW,0.00,0.0,WeatherDisplay:10.37,2014-01-28 12:42:00,
2014-01-28 13:47:00,30.9,28.6,28.47,SE,145,0.0,0.0,91,0.00,OVC,FEW,0.00,0.0,WeatherDisplay:10.37,2014-01-28 12:47:00,
2014-01-28 13:52:00,30.7,28.4,28.47,SSE,150,0.0,0.0,91,0.00,OVC,FEW,0.00,0.0,WeatherDisplay:10.37,2014-01-28 12:52:00,
2014-01-28 13:57:00,30.7,28.4,28.47,SSE,150,0.0,0.0,91,0.00,OVC,FEW,0.00,0.0,WeatherDisplay:10.37,2014-01-28 12:57:00,
2014-01-28 14:02:00,30.7,28.4,28.47,South,175,0.0,0.0,91,0.00,OVC,FEW,0.00,0.0,WeatherDisplay:10.37,2014-01-28 13:02:00,
2014-01-28 14:07:00,30.9,28.6,28.47,SSE,150,0.0,0.0,91,0.00,OVC,FEW,0.00,0.0,WeatherDisplay:10.37,2014-01-28 13:07:00,
2014-01-28 14:12:00,30.9,28.6,28.47,SSE,150,0.0,0.0,91,0.00,OVC,FEW,0.00,0.0,WeatherDisplay:10.37,2014-01-28 13:12:00,
2014-01-28 14:17:00,31.5,29.1,28.47,SSE,150,0.0,0.0,91,0.00,OVC,FEW,0.00,0.0,WeatherDisplay:10.37,2014-01-28 13:17:00,
2014-01-28 14:22:00,31.3,28.7,28.47,South,190,0.0,0.0,90,0.00,OVC,FEW,0.00,0.0,WeatherDisplay:10.37,2014-01-28 13:22:00,
2014-01-28 14:27:00,31.1,28.5,28.47,East,85,0.0,0.0,90,0.00,OVC,FEW,0.00,0.0,WeatherDisplay:10.37,2014-01-28 13:27:00,
2014-01-28 14:32:00,31.1,28.5,28.47,ESE,105,0.0,0.0,90,0.00,OVC,FEW,0.00,0.0,WeatherDisplay:10.37,2014-01-28 13:32:00,
2014-01-28 14:38:00,31.1,28.5,28.47,ESE,105,0.0,0.0,90,0.00,OVC,FEW,0.00,0.0,WeatherDisplay:10.37,2014-01-28 13:38:00,
2014-01-28 14:43:00,31.1,28.5,28.47,ESE,105,0.0,0.0,90,0.00,OVC,FEW,0.00,0.0,WeatherDisplay:10.37,2014-01-28 13:43:00,
2014-01-28 14:48:00,31.1,28.5,28.47,SE,135,0.0,0.0,90,0.00,OVC,FEW,0.00,0.0,WeatherDisplay:10.37,2014-01-28 13:48:00,
2014-01-28 14:53:00,30.9,28.3,28.47,ESE,105,0.0,0.0,90,0.00,OVC,FEW,0.00,0.0,WeatherDisplay:10.37,2014-01-28 13:53:00,
2014-01-28 14:58:00,31.1,28.5,28.47,ESE,105,0.0,0.0,90,0.00,OVC,FEW,0.00,0.0,WeatherDisplay:10.37,2014-01-28 13:58:00,
2014-01-28 15:03:00,30.9,28.3,28.47,ESE,105,0.0,0.0,90,0.00,OVC,FEW,0.00,0.0,WeatherDisplay:10.37,2014-01-28 14:03:00,
2014-01-28 15:08:00,31.1,28.5,28.47,ESE,105,0.0,0.0,90,0.00,OVC,FEW,0.00,0.0,WeatherDisplay:10.37,2014-01-28 14:08:00,
2014-01-28 15:13:00,31.1,28.5,28.47,ESE,105,0.0,0.0,90,0.00,OVC,FEW,0.00,0.0,WeatherDisplay:10.37,2014-01-28 14:13:00,
2014-01-28 15:18:00,31.1,28.5,28.47,SSE,150,0.0,0.0,90,0.00,OVC,FEW,0.00,0.0,WeatherDisplay:10.37,2014-01-28 14:18:00,
2014-01-28 15:23:00,30.7,28.2,28.47,East,100,0.0,0.0,90,0.00,OVC,FEW,0.00,0.0,WeatherDisplay:10.37,2014-01-28 14:23:00,
2014-01-28 15:28:00,30.7,28.2,28.47,ESE,120,0.0,0.0,90,0.00,OVC,FEW,0.00,0.0,WeatherDisplay:10.37,2014-01-28 14:28:00,
2014-01-28 15:33:00,30.7,28.2,28.47,ESE,120,0.0,0.0,90,0.00,OVC,FEW,0.00,0.0,WeatherDisplay:10.37,2014-01-28 14:33:00,
2014-01-28 15:38:00,30.7,28.2,28.47,ESE,120,0.0,0.0,90,0.00,OVC,FEW,0.00,0.0,WeatherDisplay:10.37,2014-01-28 14:38:00,
2014-01-28 15:43:00,30.7,28.4,28.47,ESE,120,0.0,0.0,91,0.00,OVC,FEW,0.00,0.0,WeatherDisplay:10.37,2014-01-28 14:43:00,
2014-01-28 15:48:00,30.6,28.2,28.47,SE,140,0.0,0.0,91,0.00,OVC,FEW,0.00,0.0,WeatherDisplay:10.37,2014-01-28 14:48:00,
2014-01-28 15:53:00,30.6,28.2,28.47,SSE,150,0.0,0.0,91,0.00,OVC,FEW,0.00,0.0,WeatherDisplay:10.37,2014-01-28 14:53:00,
2014-01-28 15:58:00,30.6,28.2,28.47,SE,140,0.0,0.0,91,0.00,OVC,FEW,0.00,0.0,WeatherDisplay:10.37,2014-01-28 14:58:00,
2014-01-28 16:03:00,30.6,28.5,28.47,SSE,160,0.0,0.0,92,0.00,OVC,FEW,0.00,0.0,WeatherDisplay:10.37,2014-01-28 15:03:00,
2014-01-28 16:08:00,30.4,28.3,28.47,South,170,0.0,0.0,92,0.00,OVC,FEW,0.00,0.0,WeatherDisplay:10.37,2014-01-28 15:08:00,
2014-01-28 16:13:00,30.4,28.3,28.47,South,170,0.0,0.0,92,0.00,OVC,FEW,0.00,0.0,WeatherDisplay:10.37,2014-01-28 15:13:00,
2014-01-28 16:18:00,30.4,28.3,28.47,South,170,0.0,0.0,92,0.00,OVC,FEW,0.00,0.0,WeatherDisplay:10.37,2014-01-28 15:18:00,
2014-01-28 16:23:00,30.0,27.7,28.47,SE,145,0.0,0.0,91,0.00,OVC,FEW,0.00,0.0,WeatherDisplay:10.37,2014-01-28 15:23:00,
2014-01-28 16:28:00,30.2,28.2,28.47,SE,135,0.0,0.0,92,0.00,OVC,FEW,0.00,0.0,WeatherDisplay:10.37,2014-01-28 15:28:00,
2014-01-28 16:33:00,30.2,28.2,28.47,SSE,165,0.0,0.0,92,0.00,OVC,FEW,0.00,0.0,WeatherDisplay:10.37,2014-01-28 15:33:00,
2014-01-28 16:38:00,30.2,28.2,28.47,SSE,165,0.0,0.0,92,0.00,OVC,FEW,0.00,0.0,WeatherDisplay:10.37,2014-01-28 15:38:00,
2014-01-28 16:43:00,30.2,28.2,28.47,South,175,0.0,0.0,92,0.00,OVC,FEW,0.00,0.0,WeatherDisplay:10.37,2014-01-28 15:43:00,
2014-01-28 16:48:00,30.0,27.7,28.47,South,175,0.0,0.0,91,0.00,OVC,FEW,0.00,0.0,WeatherDisplay:10.37,2014-01-28 15:48:00,
2014-01-28 16:53:00,30.2,28.2,28.47,South,175,0.0,0.0,92,0.00,OVC,FEW,0.00,0.0,WeatherDisplay:10.37,2014-01-28 15:53:00,
2014-01-28 16:58:00,30.0,27.7,28.47,South,175,0.0,0.0,91,0.00,OVC,FEW,0.00,0.0,WeatherDisplay:10.37,2014-01-28 15:58:00,
2014-01-28 17:03:00,30.0,27.7,28.47,South,175,0.0,0.0,91,0.00,CLR,FEW,0.00,0.0,WeatherDisplay:10.37,2014-01-28 16:03:00,
2014-01-28 17:08:00,30.0,27.7,28.47,South,175,0.0,0.0,91,0.00,CLR,FEW,0.00,0.0,WeatherDisplay:10.37,2014-01-28 16:08:00,
2014-01-28 17:13:00,30.0,27.7,28.47,South,175,0.0,0.0,91,0.00,CLR,FEW,0.00,0.0,WeatherDisplay:10.37,2014-01-28 16:13:00,
2014-01-28 17:18:00,30.0,28.0,28.47,SE,140,0.0,0.0,92,0.00,CLR,FEW,0.00,0.0,WeatherDisplay:10.37,2014-01-28 16:18:00,
2014-01-28 17:23:00,30.0,28.0,28.47,SSE,150,0.0,0.0,92,0.00,CLR,FEW,0.00,0.0,WeatherDisplay:10.37,2014-01-28 16:23:00,
2014-01-28 17:28:00,29.8,27.8,28.47,SE,140,0.0,0.0,92,0.00,CLR,FEW,0.00,0.0,WeatherDisplay:10.37,2014-01-28 16:28:00,
2014-01-28 17:33:00,29.8,27.8,28.47,SE,140,0.0,0.0,92,0.00,CLR,FEW,0.00,0.0,WeatherDisplay:10.37,2014-01-28 16:33:00,
2014-01-28 17:38:00,29.8,27.8,28.47,SE,140,0.0,0.0,92,0.00,CLR,FEW,0.00,0.0,WeatherDisplay:10.37,2014-01-28 16:38:00,
2014-01-28 17:43:00,30.0,28.0,28.47,SE,140,0.0,0.0,92,0.00,CLR,FEW,0.00,0.0,WeatherDisplay:10.37,2014-01-28 16:43:00,
2014-01-28 17:48:00,29.8,27.8,28.47,SSE,160,0.0,0.0,92,0.00,CLR,FEW,0.00,0.0,WeatherDisplay:10.37,2014-01-28 16:48:00,
2014-01-28 17:53:00,29.8,27.8,28.47,SSE,150,0.0,0.0,92,0.00,CLR,FEW,0.00,0.0,WeatherDisplay:10.37,2014-01-28 16:53:00,
2014-01-28 17:58:00,29.8,27.8,28.47,SSE,155,0.0,0.0,92,0.00,CLR,FEW,0.00,0.0,WeatherDisplay:10.37,2014-01-28 16:58:00,
2014-01-28 18:03:00,29.8,27.8,28.47,SSE,155,0.0,0.0,92,0.00,CLR,FEW,0.00,0.0,WeatherDisplay:10.37,2014-01-28 17:03:00,
2014-01-28 18:08:00,29.8,27.8,28.47,South,175,0.0,0.0,92,0.00,CLR,FEW,0.00,0.0,WeatherDisplay:10.37,2014-01-28 17:08:00,
2014-01-28 18:13:00,29.8,27.8,28.47,South,175,0.0,0.0,92,0.00,CLR,FEW,0.00,0.0,WeatherDisplay:10.37,2014-01-28 17:13:00,
2014-01-28 18:18:00,29.8,27.8,28.47,SSE,160,0.0,0.0,92,0.00,CLR,FEW,0.00,0.0,WeatherDisplay:10.37,2014-01-28 17:18:00,
2014-01-28 18:23:00,29.8,28.1,28.47,SSE,165,0.0,0.0,93,0.00,CLR,FEW,0.00,0.0,WeatherDisplay:10.37,2014-01-28 17:23:00,
2014-01-28 18:28:00,29.8,28.1,28.47,SE,145,0.0,0.0,93,0.00,CLR,FEW,0.00,0.0,WeatherDisplay:10.37,2014-01-28 17:28:00,
2014-01-28 18:33:00,29.8,28.1,28.47,SE,145,0.0,0.0,93,0.00,CLR,FEW,0.00,0.0,WeatherDisplay:10.37,2014-01-28 17:33:00,
2014-01-28 18:38:00,29.8,28.1,28.47,SE,145,0.0,0.0,93,0.00,CLR,FEW,0.00,0.0,WeatherDisplay:10.37,2014-01-28 17:38:00,
2014-01-28 18:43:00,29.7,27.9,28.47,SSE,150,0.0,0.0,93,0.00,CLR,FEW,0.00,0.0,WeatherDisplay:10.37,2014-01-28 17:43:00,
2014-01-28 18:48:00,29.7,27.9,28.47,East,80,0.0,0.0,93,0.00,CLR,FEW,0.00,0.0,WeatherDisplay:10.37,2014-01-28 17:48:00,
2014-01-28 18:53:00,29.7,27.9,28.47,SE,140,0.0,0.0,93,0.00,CLR,FEW,0.00,0.0,WeatherDisplay:10.37,2014-01-28 17:53:00,
2014-01-28 18:58:00,29.7,27.9,28.47,ESE,110,0.0,0.0,93,0.00,CLR,FEW,0.00,0.0,WeatherDisplay:10.37,2014-01-28 17:58:00,
2014-01-28 19:03:00,29.7,27.9,28.47,ESE,105,0.0,0.0,93,0.00,CLR,FEW,0.00,0.0,WeatherDisplay:10.37,2014-01-28 18:03:00,
2014-01-28 19:08:00,29.7,27.9,28.47,ESE,105,0.0,0.0,93,0.00,CLR,FEW,0.00,0.0,WeatherDisplay:10.37,2014-01-28 18:08:00,
2014-01-28 19:13:00,29.7,27.9,28.47,ESE,105,0.0,0.0,93,0.00,CLR,FEW,0.00,0.0,WeatherDisplay:10.37,2014-01-28 18:13:00,
2014-01-28 19:18:00,29.7,27.9,28.47,ESE,120,0.0,0.0,93,0.00,CLR,FEW,0.00,0.0,WeatherDisplay:10.37,2014-01-28 18:18:00,
2014-01-28 19:23:00,29.5,27.7,28.47,NNE,20,0.0,0.0,93,0.00,CLR,FEW,0.00,0.0,WeatherDisplay:10.37,2014-01-28 18:23:00,
2014-01-28 19:28:00,29.5,27.7,28.47,NNE,20,0.0,0.0,93,0.00,CLR,FEW,0.00,0.0,WeatherDisplay:10.37,2014-01-28 18:28:00,
2014-01-28 19:33:00,29.3,27.5,28.47,SE,135,0.0,0.0,93,0.00,CLR,FEW,0.00,0.0,WeatherDisplay:10.37,2014-01-28 18:33:00,
2014-01-28 19:38:00,29.3,27.5,28.47,SE,135,0.0,0.0,93,0.00,CLR,FEW,0.00,0.0,WeatherDisplay:10.37,2014-01-28 18:38:00,
2014-01-28 19:43:00,29.3,27.5,28.47,NW,325,0.0,0.0,93,0.00,CLR,FEW,0.00,0.0,WeatherDisplay:10.37,2014-01-28 18:43:00,
2014-01-28 19:48:00,29.3,27.5,28.47,South,185,0.0,0.0,93,0.00,CLR,FEW,0.00,0.0,WeatherDisplay:10.37,2014-01-28 18:48:00,
2014-01-28 19:53:00,29.3,27.8,28.47,South,180,0.0,0.0,94,0.00,CLR,FEW,0.00,0.0,WeatherDisplay:10.37,2014-01-28 18:53:00,
2014-01-28 19:58:00,29.3,27.8,28.47,South,180,0.0,0.0,94,0.00,CLR,FEW,0.00,0.0,WeatherDisplay:10.37,2014-01-28 18:58:00,
2014-01-28 20:03:00,29.3,27.8,28.47,South,180,0.0,0.0,94,0.00,CLR,FEW,0.00,0.0,WeatherDisplay:10.37,2014-01-28 19:03:00,
2014-01-28 20:08:00,29.1,27.6,28.47,South,180,0.0,0.0,94,0.00,CLR,FEW,0.00,0.0,WeatherDisplay:10.37,2014-01-28 19:08:00,
2014-01-28 20:13:00,29.1,27.6,28.47,South,180,0.0,0.0,94,0.00,CLR,FEW,0.00,0.0,WeatherDisplay:10.37,2014-01-28 19:13:00,
2014-01-28 20:18:00,29.1,27.6,28.47,South,180,0.0,0.0,94,0.00,CLR,FEW,0.00,0.0,WeatherDisplay:10.37,2014-01-28 19:18:00,
2014-01-28 20:23:00,28.9,27.4,28.47,SSE,165,0.0,0.0,94,0.00,CLR,FEW,0.00,0.0,WeatherDisplay:10.37,2014-01-28 19:23:00,
2014-01-28 20:28:00,28.9,27.4,28.47,SSE,165,0.0,0.0,94,0.00,CLR,FEW,0.00,0.0,WeatherDisplay:10.37,2014-01-28 19:28:00,
2014-01-28 20:33:00,28.9,27.4,28.47,SSE,165,0.0,0.0,94,0.00,CLR,FEW,0.00,0.0,WeatherDisplay:10.37,2014-01-28 19:33:00,
2014-01-28 20:38:00,28.9,27.4,28.47,SSE,165,0.0,0.0,94,0.00,CLR,FEW,0.00,0.0,WeatherDisplay:10.37,2014-01-28 19:38:00,
2014-01-28 20:43:00,28.9,27.7,28.47,South,170,0.0,0.0,95,0.00,CLR,FEW,0.00,0.0,WeatherDisplay:10.37,2014-01-28 19:43:00,
2014-01-28 20:48:00,28.9,27.7,28.47,South,185,0.0,0.0,95,0.00,CLR,FEW,0.00,0.0,WeatherDisplay:10.37,2014-01-28 19:48:00,
2014-01-28 20:53:00,28.9,27.7,28.47,SSE,165,0.0,0.0,95,0.00,CLR,FEW,0.00,0.0,WeatherDisplay:10.37,2014-01-28 19:53:00,
2014-01-28 20:58:00,28.9,27.7,28.47,SSE,165,0.0,0.0,95,0.00,CLR,FEW,0.00,0.0,WeatherDisplay:10.37,2014-01-28 19:58:00,
2014-01-28 21:03:00,28.9,27.7,28.47,SSE,165,0.0,0.0,95,0.00,CLR,FEW,0.00,0.0,WeatherDisplay:10.37,2014-01-28 20:03:00,
2014-01-28 21:08:00,28.9,27.7,28.47,SSE,150,0.0,0.0,95,0.00,CLR,FEW,0.00,0.0,WeatherDisplay:10.37,2014-01-28 20:08:00,
2014-01-28 21:13:00,28.9,27.7,28.47,SSE,150,0.0,0.0,95,0.00,CLR,FEW,0.00,0.0,WeatherDisplay:10.37,2014-01-28 20:13:00,
2014-01-28 21:18:00,28.9,27.7,28.47,SSE,155,0.0,0.0,95,0.00,CLR,FEW,0.00,0.0,WeatherDisplay:10.37,2014-01-28 20:18:00,
2014-01-28 21:23:00,28.9,27.7,28.47,SSE,155,0.0,0.0,95,0.00,CLR,FEW,0.00,0.0,WeatherDisplay:10.37,2014-01-28 20:23:00,
2014-01-28 21:28:00,28.8,27.5,28.47,SSE,165,0.0,0.0,95,0.00,CLR,FEW,0.00,0.0,WeatherDisplay:10.37,2014-01-28 20:28:00,
2014-01-28 21:33:00,28.8,27.5,28.47,SSE,150,0.0,0.0,95,0.00,CLR,FEW,0.00,0.0,WeatherDisplay:10.37,2014-01-28 20:33:00,
2014-01-28 21:38:00,28.8,27.5,28.47,SSE,150,0.0,0.0,95,0.00,CLR,FEW,0.00,0.0,WeatherDisplay:10.37,2014-01-28 20:38:00,
2014-01-28 21:43:00,28.9,27.7,28.47,SSW,195,0.0,0.0,95,0.00,CLR,FEW,0.00,0.0,WeatherDisplay:10.37,2014-01-28 20:43:00,
2014-01-28 21:48:00,28.8,27.5,28.47,South,170,0.0,0.0,95,0.00,CLR,FEW,0.00,0.0,WeatherDisplay:10.37,2014-01-28 20:48:00,
2014-01-28 21:53:00,28.8,27.5,28.47,South,170,0.0,0.0,95,0.00,CLR,FEW,0.00,0.0,WeatherDisplay:10.37,2014-01-28 20:53:00,
2014-01-28 21:58:00,28.8,27.5,28.47,SSE,150,0.0,0.0,95,0.00,CLR,FEW,0.00,0.0,WeatherDisplay:10.37,2014-01-28 20:58:00,
2014-01-28 22:03:00,28.8,27.5,28.47,SSE,150,0.0,0.0,95,0.00,CLR,FEW,0.00,0.0,WeatherDisplay:10.37,2014-01-28 21:03:00,
2014-01-28 22:08:00,28.8,27.5,28.47,SSE,150,0.0,0.0,95,0.00,CLR,FEW,0.00,0.0,WeatherDisplay:10.37,2014-01-28 21:08:00,
2014-01-28 22:13:00,28.8,27.5,28.47,SSE,150,0.0,0.0,95,0.00,CLR,FEW,0.00,0.0,WeatherDisplay:10.37,2014-01-28 21:13:00,
2014-01-28 22:18:00,28.9,27.7,28.47,SSE,150,0.0,0.0,95,0.00,CLR,FEW,0.00,0.0,WeatherDisplay:10.37,2014-01-28 21:18:00,
2014-01-28 22:23:00,28.9,27.7,28.47,SSE,150,0.0,0.0,95,0.00,CLR,FEW,0.00,0.0,WeatherDisplay:10.37,2014-01-28 21:23:00,
2014-01-28 22:28:00,28.9,27.7,28.47,SE,135,0.0,0.0,95,0.00,CLR,FEW,0.00,0.0,WeatherDisplay:10.37,2014-01-28 21:28:00,
2014-01-28 22:33:00,28.9,27.7,28.47,SSE,150,0.0,0.0,95,0.00,CLR,FEW,0.00,0.0,WeatherDisplay:10.37,2014-01-28 21:33:00,
2014-01-28 22:38:00,28.9,27.7,28.47,SSE,150,0.0,0.0,95,0.00,CLR,FEW,0.00,0.0,WeatherDisplay:10.37,2014-01-28 21:38:00,
2014-01-28 22:43:00,28.9,27.7,28.47,South,170,0.0,0.0,95,0.00,CLR,FEW,0.00,0.0,WeatherDisplay:10.37,2014-01-28 21:43:00,
2014-01-28 22:48:00,28.9,27.7,28.47,SSE,150,0.0,0.0,95,0.00,CLR,FEW,0.00,0.0,WeatherDisplay:10.37,2014-01-28 21:48:00,
2014-01-28 22:53:00,28.9,27.9,28.47,SE,140,0.0,0.0,96,0.00,CLR,FEW,0.00,0.0,WeatherDisplay:10.37,2014-01-28 21:53:00,
2014-01-28 22:58:00,28.9,27.9,28.47,South,170,0.0,0.0,96,0.00,CLR,FEW,0.00,0.0,WeatherDisplay:10.37,2014-01-28 21:58:00,
2014-01-28 23:03:00,28.9,27.9,28.47,SSE,155,0.0,0.0,96,0.00,CLR,FEW,0.00,0.0,WeatherDisplay:10.37,2014-01-28 22:03:00,
2014-01-28 23:08:00,28.9,27.9,28.47,SE,130,0.0,0.0,96,0.00,CLR,FEW,0.00,0.0,WeatherDisplay:10.37,2014-01-28 22:08:00,
2014-01-28 23:13:00,28.9,27.9,28.47,SE,130,0.0,0.0,96,0.00,CLR,FEW,0.00,0.0,WeatherDisplay:10.37,2014-01-28 22:13:00,
2014-01-28 23:18:00,28.9,27.9,28.47,SSE,160,0.0,0.0,96,0.00,CLR,FEW,0.00,0.0,WeatherDisplay:10.37,2014-01-28 22:18:00,
2014-01-28 23:23:00,28.9,27.9,28.47,SSE,160,0.0,0.0,96,0.00,CLR,FEW,0.00,0.0,WeatherDisplay:10.37,2014-01-28 22:23:00,
2014-01-28 23:28:00,28.9,27.9,28.47,South,170,0.0,0.0,96,0.00,CLR,FEW,0.00,0.0,WeatherDisplay:10.37,2014-01-28 22:28:00,
2014-01-28 23:33:00,28.9,27.9,28.47,SE,140,0.0,0.0,96,0.00,CLR,FEW,0.00,0.0,WeatherDisplay:10.37,2014-01-28 22:33:00,
2014-01-28 23:38:00,28.9,27.9,28.47,SE,140,0.0,0.0,96,0.00,CLR,FEW,0.00,0.0,WeatherDisplay:10.37,2014-01-28 22:38:00,
2014-01-28 23:43:00,28.9,27.9,28.47,SE,135,0.0,0.0,96,0.00,CLR,FEW,0.00,0.0,WeatherDisplay:10.37,2014-01-28 22:43:00,
2014-01-28 23:48:00,28.8,27.8,28.47,SE,135,0.0,0.0,96,0.00,CLR,FEW,0.00,0.0,WeatherDisplay:10.37,2014-01-28 22:48:00,
2014-01-28 23:53:00,28.9,27.9,28.47,ESE,110,0.0,0.0,96,0.00,CLR,FEW,0.00,0.0,WeatherDisplay:10.37,2014-01-28 22:53:00,
2014-01-28 23:58:00,28.9,27.9,28.47,ESE,110,0.0,0.0,96,0.00,CLR,FEW,0.00,0.0,WeatherDisplay:10.37,2014-01-28 22:58:00,